Weather in Sergievskaya

Russia / Vologda Oblast     60°14′37″N   43°56′26″E
temp.,
°C
wind,
m/s
gust,
m/s
humid.,
%
clouds,
%
prec.,
mm/h
press.,
hPa
HPBL,
m
29 july, thu
thu2900:00+15sw3107572 0.1 1009208
03:00+13sw259563 0.1 1008107
06:00+16wsw2482100 0.0 1006145
09:00+19sw3573100 0.3 1005410
12:00+18w2489100 1.3 1005203
15:00+17ese1293100 2.4 100384
18:00+18sw3792100 1.4 1001273
21:00+16ssw31099100 4.1 999365
30 july, fri
fri3000:00+15sw3109833 1.1 999289
03:00+14wsw3119736 1.2 999345
06:00+15wsw3109544 0.0 1000423
09:00+20w476712 0.0 1000870
12:00+23wnw475867 0.4 10011475
15:00+26w5738100 0.6 10002292
18:00+25wnw145136 0.0 1000280
21:00+19ssw226894 0.0 100050
31 july, sat
sat3100:00+17sw2774100 0.0 1000181
03:00+15wsw1298100 1.1 100041
06:00+15ssw2598100 0.4 999160
09:00+18wsw3681100 0.8 999475
12:00+20sw365953 0.1 999806
15:00+17w61087100 1.5 999788
18:00+18wsw28807 0.6 999880
21:00+14sw299486 1.4 1000245
1 august, sun
sun100:00+14sw4129533 0.3 1000489
03:00+14wsw3897100 0.4 1002636
06:00+14w379590 0.1 1004544
09:00+18w466995 0.1 1005919
12:00+23wsw4648100 0.0 10051933
15:00+23sw4647100 0.0 10051912
18:00+19sw4108292 0.8 1005531
21:00+16sw3997100 1.2 1006476
2 august, mon
mon200:00+14ssw3109820 0.1 1005381
03:00+13ssw3109941 0.1 1005308
06:00+14sw3119623 0.0 1006394
09:00+20wsw48640 0.0 10061031
12:00+24wsw6941100 0.0 10062081
15:00+25wsw583945 0.0 10062280
18:00+24sw244916 0.0 1005317
21:00+17s2271100 0.0 100516